Погода в Владимире

Погода в Владимире : погода сейчас, прогноз погоды и архив. Всё, что Вы хотите узнать о погоде в Владимире!

Хотите узнать прогноз погоды в Владимире? Тогда Вам сюда: Погода в Владимире

Поиск расширенной информации на нашем сайте:

Другие новости

Новости СМИ2

Главная страница сайта

Новости сайта

02.10.2013

Напоминаем, что на нашем новом сайте вы можете получить высокодетализированные прогнозы погоды по пунктам России, СНГ и мира (включающие важные для авиации метеовеличины, такие как направление и скорость ветра, видимость, явления погоды, количество и форма облачности, нижняя и верхняя граница облачности), а также ознакомиться с разнообразными материалами по авиационной метеорологии и подборкой полезных ссылок на эту тему.

Сайт Метеоцентр.Азия посвящён разработке технологий оптимизации авиаметеорологического обслуживания, включая проектирование и перспективное создание нескольких автоматизированных авиаметеорологических систем:
- система выпуска высокодетальных прогностических карт явлений погоды для нижнего воздушного пространства по России и ближнему зарубежью;
- система верификации прогнозов TAF (выпускаемых синоптиками официальных АМСГ РФ и ближнего зарубежья) и AUTOTAF (выпускаемых сайтом Метеоцентр.Азия) - выявление ошибок, онлайн-сопоставление с фактической погодой METAR, автоматическое внесение коррективов в прогнозы при резком отклонении фактической погоды от прогноза, подсчёт оправдываемости прогнозов по элементам и в целом;
- система обработки, анализа и отображения авиаметеорологической информации для применения провайдерами метеорологической информации.

Рекомендуем: Быстрый ремонт компьютеров во фряново у нас всегда отвечает стандартам.

Погода в Владимире - сегодня

Время (UTC), дата Ветер
(°,м/с) 
Видим.   Явления Облачность Т
(°С)
Тd
(°С)
f(%) Тe
(°С)
Pmin
(гПа)
dP
(гПа)
Po
(мм)
O2
(г/м3)
Тmin Tmax R s Состояние
почвы
06 26.03.17 340 (С) 10 км    3/3 600 м 
[Sc diur, vesp]
+0.1 -4.7 70 -2  1015.4  1.2  745  301  -2.7         
09 26.03.17 310 (СЗ) 10 км    4/4 600 м 
[Sc diur, vesp]
+3.2 -7.1 47 +1  1014.8  -0.3  745  298           
12 26.03.17 290 (З) 0500 м    4/4 600 м 
[Sc diur, vesp]
+5.1 -9 35 +3  1012.4  -2.2  744  295           
15 26.03.17 260 (З) 10 км    8/0 верхняя 
[Ci sp]
+4.2 -10.8 33 +2  1008.9  -3.5  741  295    +5.4       
18 26.03.17 220 (ЮЗ) 10 км    8/0 средняя, верхняя 
[Ac trans|Ci sp]
+1.9 -8.6 46 1005.6  -3.3  738  296           
21 26.03.17 240 (ЮЗ) 6{15}  10 км    10/0 средняя 
[Ac As]
+1.2 -6.5 56 -2  1000.1  -5.4  734  295           
00 27.03.17 200 (Ю) 6{13}  4000 м  слаб. снег  10/8 400 м средняя 
[Frnb|Ac As]
-1.1 -2.1 93 -5  993.5  -6.6  729  295           
03 27.03.17 220 (ЮЗ) 6{11}  1000 м  снег  10/10 210 м 
[Frnb|Ns]
-0.7 -1.5 94 -4  988.8  -4.5  726  293  -1.3    равномерный
мокрый или
старый снег
100% 
06 27.03.17 300 (СЗ) 2000 м  слаб. снег  10/10 150 м 
[Frnb|Ns]
+0.2 -0.5 95 -1  988.8  726  292           
09 27.03.17 330 (СЗ) 7-11{11}  2000 м  слаб. снег  10/10 270 м 
[Frnb|Ns]
+0.6 -0.2 94 -3  991.7  2.9  728  293           
12 27.03.17 350 (С) 8-12{13}  10 км  {снег}  8/6 480 м кучево-дожд., средняя 
[Cb cap|Ac trans]
+2.6 -2 72 -1  994.6  730  292           
15 27.03.17 330 (СЗ) 7-11{15}  10 км    9/8 600 м кучево-дожд., средняя 
[Cb cap|Ac trans]
+1.9 -3.6 67 -2  997.2  2.4  732  293    +2.6     
18 27.03.17 280 (З) 2{11}  10 км    8/6 600 м средняя 
[Sc|Ac trans]
-0.2 -3.3 80 -1  998.5  1.2  733  296           
21 27.03.17 250 (З) 10 км    8/6 600 м средняя 
[Sc|Ac trans]
-0.6 -4.4 75 -2  997.2  -1.3  732  296           
00 28.03.17 220 (ЮЗ) 10 км    9/6 600 м средняя 
[Sc|Ac trans]
-1 -3.5 83 -4  994  -3.2  730  295           
03 28.03.17 170 (Ю) 2000 м  слаб. ливневой снег  10/8 210 м кучево-дожд., средняя 
[Cb cap|Ac und]
-1.5 -2.4 94 -2  990.7  -3.4  727  295  -1.5    0.6  равномерный
сухой снег
100% 
06 28.03.17 140 (ЮВ) 2000 м  слаб. снег{ливн. осадки}  10/10 120 м 
[Frnb|Ns]
-0.5 -1.4 94 988.8  -1.7  726  293           
09 28.03.17 020 (С) 2000 м  слаб. снег  10/10 180 м 
[Frnb|Ns]
+0.3 -1 91 -2  990.5  1.8  727  293           
12 28.03.17 360 (С) 9-14{14}  4000 м  в посл. час снег  10/8 240 м средняя 
[Frnb|Ac As]
+0.4 -1.2 89 -4  994.4  3.8  730  294           
15 28.03.17 330 (СЗ) 8-12{14}  10 км    8/3 600 м верхняя 
[Sc|Ci fib]
+0.8 -6.5 58 -3  997.9  3.8  733  295    +1.4     
18 28.03.17 320 (СЗ) 6{13}  10 км    ясно 
-1.6 -8.3 60 -5  1001.2  3.1  735  299           
21 28.03.17 310 (СЗ) 5{10}  10 км    ясно 
-2.8 -8.3 66 -6  1002.8  1.4  736  300           
00 29.03.17 290 (З) н/о    н/о 
-4.2 -8.7 71 -6  1003.4  0.4  736  302           
03 29.03.17 320 (СЗ) 10 км    8/6 600 м средняя 
[Sc|Ac trans]
-4 -7.4 77 -7  1005.1  1.8  738  302  -4.5      равномерный
мокрый или
старый снег
100% 
06 29.03.17 330 (СЗ) 7-10{12}  10 км    3/3 600 м 
[Sc]
-3.9 -11.5 55 -9  1007.7  2.5  740  303           
Время (UTC), дата Ветер
(°,м/с) 
Видим.   Явления Облачность Т
(°С)
Тd
(°С)
f(%) Тe
(°С)
Pmin
(гПа)
dP
(гПа)
Po
(мм)
O2
(г/м3)
Тmin Tmax R s Состояние
почвы

Для получения пояснительной информации подведите курсор к названию столбца.

ПОГОДА в Владимире - архив

Всё, что Вы хотите узнать о погоде в Владимире - удобно и подробно!

Выберите нужную дату (начиная с 1 января 2015* года) и нажмите кнопку "Найти".
Будут отображены архивные сводки погоды по пункту Владимир, начиная с указанной даты.


Отображать данные в формате CSV (для использования в таблицах Excel)


Внимание! Наш архив погоды предназначен исключительно для личного некоммерческого использования в познавательных целях. Если Вам необходимы официальные справки о состоянии погоды (для производственных, юридических, коммерческих и т.п. целей), обращайтесь в органы Росгидромета.

*Примечание: данная дата относится к архиву по метеостанциям СССР (Россия, СНГ, Балтия).
Архив по метеостанциям Зарубежной Европы и Азии (кроме Китая) хранится 10 дней, по другим регионам земного шара (Китай, Африка, Америка, Австралия, Океания) - 1 день.

Владимир - район местоположения метеостанции


Название, широта, долгота, высота метеостанции:
Владимир 56.1°ш. 40.3°д. 172 м над ур. моря [Российская Федерация]

Дополнительная информация

В oтличие oт бoльшинства пoгoдных сайтoв мы публикуем пoдрoбную метеoинфoрмацию в детальнoм прoфессиoнальнoм фoрмате.

Характеристики температуры и влажнoсти вoздуха измеряются на высoте 2 м в тени вдали oт зданий и деревьев.
Скoрoсть ветра измеряется на высoте 10 м (на урoвне рoста челoвека скoрoсть ветра ниже в 1.5-2 раза). Если метеoстанция нахoдится в гoрoде или в лесу, тo скoрoсть ветра занижена на 2-4 м/с пo сравнению с oткрытым местoм. Скoрoсть ветра над акватoриями крупных рек и oзёр, а также на вершинах хoлмoв на 2-5 м/с выше, чем в oбычных услoвиях.
Атмoсфернoе давление в разных тoчках местнoсти мoжет значительнo oтличаться oт давления на метеoстанции, в зависимoсти oт услoвий рельефа (при пoдъёме на 10 м давление пoнижается примернo на 1 мм рт.ст.).